�������l�o���
Date,Time,MP-1(��Sv/h),MP-2(��Sv/h),MP-3(��Sv/h),MP-4(��Sv/h),MP-5(��Sv/h),MP-6(��Sv/h),MP-7(��Sv/h),MP-8(��Sv/h),����,����(m/s),���J
2021/05/07,00:00,0.623,0.927,0.585,1.134,0.806,0.373,0.649,0.606,��쐼,5.6,��
2021/05/07,00:10,0.623,0.926,0.585,1.137,0.807,0.372,0.650,0.607,��쐼,5.3,��
2021/05/07,00:20,0.624,0.928,0.584,1.137,0.805,0.373,0.648,0.607,��쐼,5.0,��
2021/05/07,00:30,0.625,0.927,0.585,1.136,0.806,0.371,0.649,0.608,�쐼,5.1,��
2021/05/07,00:40,0.626,0.927,0.585,1.138,0.806,0.372,0.648,0.607,��쐼,5.1,��
2021/05/07,00:50,0.624,0.925,0.584,1.138,0.806,0.373,0.649,0.608,��쐼,4.7,��
2021/05/07,01:00,0.625,0.927,0.585,1.137,0.806,0.373,0.647,0.607,��쐼,4.9,��
2021/05/07,01:10,0.623,0.928,0.586,1.136,0.805,0.373,0.650,0.608,��쐼,4.8,��
2021/05/07,01:20,0.623,0.926,0.584,1.137,0.804,0.373,0.651,0.607,��쐼,4.1,��
2021/05/07,01:30,0.624,0.927,0.585,1.136,0.806,0.373,0.649,0.606,��쐼,4.5,��
2021/05/07,01:40,0.624,0.927,0.585,1.138,0.805,0.373,0.648,0.606,�쐼,4.2,��
2021/05/07,01:50,0.626,0.926,0.582,1.136,0.806,0.373,0.649,0.607,�쐼,4.7,��
2021/05/07,02:00,0.623,0.926,0.584,1.137,0.805,0.375,0.648,0.608,�쐼,4.3,��
2021/05/07,02:10,0.624,0.925,0.585,1.137,0.806,0.373,0.649,0.607,�쐼,4.5,��
2021/05/07,02:20,0.624,0.925,0.584,1.137,0.804,0.372,0.650,0.606,�쐼,4.3,��
2021/05/07,02:30,0.625,0.926,0.586,1.138,0.806,0.371,0.649,0.607,�쐼,4.4,��
2021/05/07,02:40,0.624,0.925,0.584,1.135,0.804,0.373,0.649,0.607,��쐼,4.3,��
2021/05/07,02:50,0.624,0.924,0.585,1.136,0.806,0.374,0.650,0.608,�쐼,3.5,��
2021/05/07,03:00,0.625,0.928,0.585,1.137,0.806,0.373,0.649,0.607,�쐼,3.9,��
2021/05/07,03:10,0.624,0.926,0.585,1.134,0.808,0.372,0.650,0.608,��쐼,4.4,��
2021/05/07,03:20,0.624,0.923,0.585,1.136,0.805,0.373,0.650,0.607,��쐼,4.5,��
2021/05/07,03:30,0.624,0.925,0.586,1.138,0.806,0.372,0.650,0.608,��쐼,4.1,��
2021/05/07,03:40,0.624,0.924,0.585,1.138,0.804,0.372,0.648,0.607,�쐼,2.6,��
2021/05/07,03:50,0.622,0.924,0.585,1.139,0.806,0.372,0.648,0.606,�쐼,2.3,��
2021/05/07,04:00,0.624,0.926,0.584,1.136,0.807,0.372,0.649,0.608,���쐼,1.7,��
2021/05/07,04:10,0.624,0.927,0.582,1.136,0.806,0.373,0.649,0.607,�쐼,0.9,��
2021/05/07,04:20,0.623,0.925,0.584,1.137,0.805,0.373,0.649,0.608,���쐼,0.6,��
2021/05/07,04:30,0.623,0.928,0.585,1.135,0.806,0.372,0.650,0.608,�쐼,0.9,��
2021/05/07,04:40,0.624,0.926,0.585,1.138,0.806,0.372,0.651,0.607,�쐼,0.9,��
2021/05/07,04:50,0.626,0.925,0.584,1.137,0.808,0.373,0.649,0.607,��쓌,0.6,��
2021/05/07,05:00,0.625,0.927,0.585,1.134,0.806,0.374,0.648,0.607,�쓌,0.8,��
2021/05/07,05:10,0.624,0.927,0.584,1.137,0.806,0.373,0.650,0.607,��,1.1,��
2021/05/07,05:20,0.623,0.926,0.585,1.138,0.806,0.374,0.649,0.607,�k,1.5,��
2021/05/07,05:30,0.624,0.924,0.585,1.140,0.808,0.372,0.647,0.606,�k,2.3,��
2021/05/07,05:40,0.623,0.928,0.586,1.138,0.806,0.372,0.647,0.606,�k,1.5,��
2021/05/07,05:50,0.626,0.927,0.587,1.138,0.809,0.373,0.650,0.607,�k,1.7,��
2021/05/07,06:00,0.623,0.927,0.586,1.138,0.806,0.372,0.651,0.608,�k,2.0,��
2021/05/07,06:10,0.625,0.926,0.586,1.139,0.808,0.374,0.651,0.609,�k,2.0,��
2021/05/07,06:20,0.625,0.926,0.585,1.138,0.807,0.373,0.651,0.607,�k,2.0,��
2021/05/07,06:30,0.625,0.927,0.586,1.136,0.807,0.374,0.649,0.607,�k�k��,3.6,��
2021/05/07,06:40,0.626,0.929,0.587,1.140,0.805,0.374,0.649,0.608,�k,2.3,��
2021/05/07,06:50,0.624,0.928,0.586,1.138,0.806,0.373,0.650,0.609,�k,2.3,��
2021/05/07,07:00,0.625,0.925,0.586,1.139,0.806,0.372,0.649,0.608,�k,1.7,��
2021/05/07,07:10,0.625,0.926,0.586,1.139,0.806,0.374,0.649,0.607,�k��,1.2,��
2021/05/07,07:20,0.626,0.924,0.587,1.137,0.808,0.372,0.649,0.609,�k��,1.2,��
2021/05/07,07:30,0.624,0.926,0.585,1.138,0.807,0.371,0.650,0.608,��,0.9,��
2021/05/07,07:40,0.627,0.923,0.586,1.139,0.806,0.373,0.649,0.608,���k��,0.6,��
2021/05/07,07:50,0.624,0.925,0.587,1.137,0.807,0.372,0.648,0.608,��,0.9,��
2021/05/07,08:00,0.624,0.925,0.585,1.141,0.807,0.370,0.649,0.608,�쓌,1.1,��
2021/05/07,08:10,0.624,0.926,0.585,1.139,0.807,0.371,0.648,0.606,�k��,1.1,��
2021/05/07,08:20,0.624,0.920,0.586,1.141,0.807,0.372,0.647,0.607,��쓌,1.9,��
2021/05/07,08:30,0.623,0.922,0.587,1.140,0.805,0.372,0.649,0.606,�쓌,1.4,��
2021/05/07,08:40,0.624,0.923,0.584,1.140,0.803,0.370,0.648,0.607,���쓌,1.7,��
2021/05/07,08:50,0.623,0.923,0.585,1.140,0.807,0.371,0.648,0.605,�쓌,2.5,��
2021/05/07,09:00,0.624,0.924,0.585,1.139,0.806,0.372,0.648,0.605,��,2.6,��
2021/05/07,09:10,0.624,0.925,0.586,1.140,0.805,0.372,0.647,0.605,���k��,2.3,��
2021/05/07,09:20,0.624,0.925,0.584,1.139,0.806,0.370,0.648,0.606,���쓌,3.1,��
2021/05/07,09:30,0.623,0.927,0.585,1.140,0.805,0.372,0.649,0.605,�쓌,4.7,��
2021/05/07,09:40,0.625,0.926,0.586,1.137,0.808,0.370,0.650,0.606,�쓌,6.1,��
2021/05/07,09:50,0.625,0.925,0.585,1.141,0.805,0.372,0.647,0.606,�쓌,5.9,��
2021/05/07,10:00,0.624,0.925,0.584,1.141,0.805,0.372,0.649,0.606,��쓌,6.7,��
2021/05/07,10:10,0.626,0.927,0.584,1.141,0.806,0.372,0.650,0.606,��쓌,6.8,��
2021/05/07,10:20,0.623,0.926,0.584,1.139,0.807,0.372,0.650,0.606,��쓌,9.2,��
2021/05/07,10:30,0.624,0.926,0.585,1.139,0.806,0.372,0.648,0.605,��쓌,9.2,��
2021/05/07,10:40,0.625,0.926,0.584,1.140,0.805,0.372,0.648,0.606,��쓌,10.3,��
2021/05/07,10:50,0.626,0.925,0.585,1.140,0.808,0.371,0.649,0.606,��쓌,10.5,��
2021/05/07,11:00,0.626,0.928,0.585,1.141,0.805,0.373,0.650,0.607,��쓌,10.7,��
2021/05/07,11:10,0.626,0.925,0.583,1.139,0.807,0.372,0.648,0.605,��쓌,10.6,��
2021/05/07,11:20,0.626,0.925,0.583,1.139,0.806,0.372,0.650,0.606,��쓌,11.3,��
2021/05/07,11:30,0.626,0.927,0.585,1.141,0.806,0.371,0.650,0.606,��쓌,11.6,��
2021/05/07,11:40,0.623,0.927,0.584,1.139,0.806,0.372,0.649,0.607,��쓌,12.4,��
2021/05/07,11:50,0.625,0.929,0.585,1.140,0.809,0.373,0.649,0.606,��쓌,10.7,��
2021/05/07,12:00,0.624,0.926,0.582,1.139,0.807,0.371,0.648,0.607,��쓌,12.2,��
2021/05/07,12:10,0.624,0.928,0.583,1.140,0.807,0.372,0.650,0.606,��쓌,10.5,��
2021/05/07,12:20,0.624,0.927,0.584,1.137,0.806,0.374,0.649,0.606,��쓌,10.9,��
2021/05/07,12:30,0.625,0.927,0.586,1.139,0.806,0.374,0.649,0.607,��쓌,10.7,��
2021/05/07,12:40,0.624,0.927,0.583,1.138,0.808,0.372,0.650,0.607,��,10.7,��
2021/05/07,12:50,0.624,0.928,0.584,1.138,0.806,0.373,0.650,0.606,��쓌,9.7,��
2021/05/07,13:00,0.624,0.927,0.583,1.139,0.807,0.373,0.651,0.605,��쓌,10.0,��
2021/05/07,13:10,0.623,0.926,0.584,1.140,0.807,0.372,0.651,0.605,��쓌,8.1,��
2021/05/07,13:20,0.624,0.927,0.584,1.139,0.807,0.373,0.648,0.607,��쓌,10.9,��
2021/05/07,13:30,0.626,0.924,0.586,1.141,0.808,0.374,0.649,0.606,��쓌,9.4,��
2021/05/07,13:40,0.626,0.926,0.585,1.139,0.807,0.374,0.651,0.605,��쓌,10.0,��
2021/05/07,13:50,0.625,0.927,0.584,1.141,0.806,0.374,0.648,0.605,��쓌,11.6,��
2021/05/07,14:00,0.625,0.925,0.585,1.140,0.807,0.373,0.649,0.606,��쓌,8.6,��
2021/05/07,14:10,0.626,0.929,0.585,1.141,0.808,0.374,0.649,0.607,��쓌,7.9,��
2021/05/07,14:20,0.624,0.927,0.583,1.141,0.807,0.373,0.651,0.607,��쓌,8.8,��
2021/05/07,14:30,0.625,0.928,0.586,1.141,0.808,0.374,0.649,0.609,��,9.5,��
2021/05/07,14:40,0.624,0.927,0.586,1.140,0.806,0.374,0.650,0.606,��,8.1,�L
2021/05/07,14:50,0.622,0.930,0.585,1.141,0.809,0.374,0.648,0.607,��,9.9,�L
2021/05/07,15:00,0.623,0.929,0.587,1.141,0.808,0.373,0.651,0.607,��,10.0,�L
2021/05/07,15:10,0.624,0.929,0.588,1.141,0.806,0.375,0.651,0.606,��,8.5,�L
2021/05/07,15:20,0.629,0.929,0.587,1.142,0.810,0.376,0.650,0.606,��,10.0,�L
2021/05/07,15:30,0.630,0.931,0.591,1.144,0.810,0.376,0.648,0.607,��,8.4,�L
2021/05/07,15:40,0.630,0.932,0.592,1.144,0.810,0.378,0.648,0.607,��,9.1,�L
2021/05/07,15:50,0.631,0.930,0.591,1.145,0.810,0.377,0.650,0.609,��,9.8,�L
2021/05/07,16:00,0.629,0.931,0.593,1.145,0.812,0.378,0.649,0.608,��,8.5,�L
2021/05/07,16:10,0.630,0.933,0.592,1.146,0.812,0.378,0.650,0.609,��,9.3,�L
2021/05/07,16:20,0.631,0.932,0.592,1.145,0.814,0.379,0.651,0.607,��,9.4,�L
2021/05/07,16:30,0.629,0.933,0.593,1.145,0.811,0.379,0.649,0.608,��,8.1,�L
2021/05/07,16:40,0.629,0.930,0.593,1.145,0.811,0.378,0.650,0.610,��,8.2,�L
2021/05/07,16:50,0.630,0.934,0.592,1.147,0.809,0.379,0.649,0.607,��,7.7,�L
2021/05/07,17:00,0.630,0.930,0.593,1.144,0.810,0.378,0.649,0.608,��,8.1,�L
2021/05/07,17:10,0.632,0.933,0.591,1.145,0.810,0.376,0.649,0.608,��,7.5,�L
2021/05/07,17:20,0.628,0.934,0.590,1.143,0.810,0.378,0.647,0.609,��,6.2,��
2021/05/07,17:30,0.626,0.931,0.588,1.140,0.810,0.375,0.649,0.607,��,5.4,��
2021/05/07,17:40,0.627,0.933,0.590,1.141,0.808,0.376,0.648,0.607,��,7.0,��
2021/05/07,17:50,0.625,0.932,0.588,1.143,0.807,0.374,0.651,0.608,��,7.7,��
2021/05/07,18:00,0.624,0.929,0.587,1.139,0.806,0.375,0.650,0.608,��,9.4,��
2021/05/07,18:10,0.625,0.930,0.586,1.142,0.808,0.374,0.650,0.609,��쓌,10.0,��
2021/05/07,18:20,0.622,0.929,0.587,1.140,0.806,0.375,0.651,0.609,��,9.5,��
2021/05/07,18:30,0.624,0.930,0.587,1.142,0.804,0.373,0.650,0.607,��,8.1,��
2021/05/07,18:40,0.622,0.928,0.587,1.141,0.806,0.373,0.651,0.607,��,8.7,��
2021/05/07,18:50,0.623,0.926,0.586,1.139,0.805,0.374,0.649,0.607,��쐼,7.8,��
2021/05/07,19:00,0.623,0.929,0.586,1.140,0.806,0.373,0.649,0.607,��쐼,7.7,��
2021/05/07,19:10,0.622,0.924,0.586,1.139,0.805,0.373,0.649,0.608,��쐼,7.1,��
2021/05/07,19:20,0.624,0.927,0.586,1.141,0.806,0.374,0.649,0.608,�쐼,6.9,��
2021/05/07,19:30,0.624,0.928,0.587,1.140,0.806,0.373,0.649,0.608,��쐼,7.7,��
2021/05/07,19:40,0.624,0.928,0.586,1.140,0.806,0.373,0.650,0.607,��쐼,7.7,��
2021/05/07,19:50,0.626,0.930,0.586,1.139,0.806,0.373,0.648,0.607,��쐼,6.6,��
2021/05/07,20:00,0.625,0.928,0.587,1.142,0.805,0.373,0.649,0.608,��쐼,7.1,��
2021/05/07,20:10,0.625,0.928,0.586,1.140,0.805,0.374,0.650,0.608,��쐼,6.9,��
2021/05/07,20:20,0.626,0.927,0.586,1.140,0.805,0.374,0.649,0.609,��쐼,3.0,��
2021/05/07,20:30,0.625,0.930,0.587,1.140,0.807,0.374,0.650,0.608,��,4.3,��
2021/05/07,20:40,0.624,0.928,0.586,1.141,0.807,0.373,0.649,0.609,��,5.2,��
2021/05/07,20:50,0.625,0.928,0.585,1.140,0.806,0.374,0.649,0.606,��,5.1,��
2021/05/07,21:00,0.625,0.928,0.588,1.139,0.806,0.374,0.650,0.608,��,4.2,��
2021/05/07,21:10,0.626,0.929,0.586,1.139,0.807,0.371,0.652,0.607,��,4.5,��
2021/05/07,21:20,0.625,0.929,0.585,1.141,0.805,0.374,0.649,0.608,��쐼,5.1,��
2021/05/07,21:30,0.625,0.929,0.585,1.139,0.807,0.373,0.651,0.609,��쐼,5.6,��
2021/05/07,21:40,0.624,0.927,0.585,1.140,0.806,0.374,0.650,0.609,��쐼,4.7,��
2021/05/07,21:50,0.625,0.930,0.587,1.141,0.807,0.372,0.651,0.607,��쐼,5.3,��
2021/05/07,22:00,0.625,0.929,0.586,1.140,0.807,0.374,0.651,0.610,��쐼,5.3,��
2021/05/07,22:10,0.626,0.930,0.585,1.141,0.808,0.374,0.650,0.608,��쐼,4.7,��
2021/05/07,22:20,0.624,0.927,0.587,1.139,0.808,0.374,0.650,0.608,��쐼,4.5,��
2021/05/07,22:30,0.625,0.927,0.585,1.139,0.807,0.375,0.650,0.607,��쐼,4.0,��
2021/05/07,22:40,0.623,0.929,0.585,1.140,0.807,0.373,0.651,0.608,��,4.3,��
2021/05/07,22:50,0.624,0.927,0.585,1.139,0.807,0.375,0.649,0.608,��,4.4,��
2021/05/07,23:00,0.626,0.929,0.585,1.138,0.807,0.375,0.650,0.609,��,5.1,��
2021/05/07,23:10,0.623,0.928,0.586,1.139,0.807,0.375,0.651,0.608,��쐼,6.2,��
2021/05/07,23:20,0.624,0.927,0.585,1.140,0.806,0.372,0.650,0.609,��쐼,7.4,��
2021/05/07,23:30,0.624,0.928,0.586,1.140,0.805,0.373,0.650,0.607,��쐼,5.6,��
2021/05/07,23:40,0.626,0.928,0.586,1.141,0.807,0.374,0.650,0.608,��쐼,5.3,��
2021/05/07,23:50,0.626,0.927,0.587,1.139,0.808,0.374,0.651,0.609,��쐼,4.8,��
